Zurück zum Katalog

STARLINK-3997

AktivKommunikationVLEO
NORAD 52609·PAYLOAD·🇺🇸 United States

Gestartet May 14, 2022 von Cape Canaveral Space Force Station

Loading…

Nächste Überflüge (nächste 24 Stunden)

TLE

AktuellSource: CelesTrak SupGP

Epoche: Sep 15, 2026, 01:53 UTC

1 52609C 22052M   26258.07895833  .00017151  00000+0  50677-3 0  2589
2 52609  53.1579 140.7228 0001447  88.3730 166.2685 15.34378678    10

Verfolge STARLINK-3997 in Echtzeit mit AllMySat

Download on the App Store